[[{"header":{"parameterUnit":"m.s-1","parameterCategory":1,"la1":30.2991,"la2":30.254,"lo1":-89.0895,"lo2":-89.0444,"dx":0.0017,"dy":0.0017,"nx":28,"ny":28,"refTime":"2023-01-14T03:00:00:Z","depth":0,"parameterNumber":2,"parameterNumberName":"U-component_of_WINDS"},"data":[0,0,0,0,0,0,0,0,0,0,0,0,0,0,0,0,0,0,0,0,0,0,0,0,0,0,0,0,0,0,0,0,0,0,0,0,0,0,0,0,0,0,0,0,0,0,0,0,0,0,0,0,0,0,0,0,0,0,-2.0167,-2.0168,0,-2.0283,-2.0284,-2.0286,-2.0333,-2.0333,-2.0332,-2.0332,-2.0451,-2.0455,-2.0458,0,0,0,0,0,0,0,0,0,0,0,0,0,-1.9985,-1.9988,-2.0167,-2.0168,-2.017,-2.0283,-2.0285,-2.0286,-2.0333,-2.0333,-2.0332,-2.0332,-2.045,-2.0454,-2.0458,0,0,0,0,0,0,0,0,0,0,0,0,0,-2.0079,-1.9989,-2.0166,-2.0207,-2.0211,-2.0283,-2.0285,-2.0287,-2.0333,-2.0333,-2.0332,-2.0332,-2.0449,-2.0454,-2.0459,-2.0499,0,0,-2.0475,-2.0477,0,0,0,0,0,0,0,0,-2.0074,-2.0086,-2.0199,-2.0204,-2.0209,-2.0293,-2.0264,-2.0358,-2.0333,-2.0287,-2.0332,-2.0332,-2.0399,-2.0408,-2.0431,-2.0505,-2.051,-2.0475,-2.0478,-2.0481,-2.0482,0,0,0,0,0,0,0,-2.0067,-2.0081,-2.0213,-2.0201,-2.0207,-2.0219,-2.0232,-2.0282,-2.0344,-2.0291,-2.0294,-2.0308,-2.0402,-2.0426,-2.0434,-2.0512,-2.0475,-2.048,-2.0483,-2.0485,-2.0624,-2.0624,0,0,0,0,0,0,-2.0054,-2.0075,-2.0209,-2.0216,-2.0139,-2.0222,-2.0237,-2.0267,-2.0343,-2.0355,-2.0308,-2.0309,-2.0417,-2.0428,-2.0439,-2.049,-2.0481,-2.0485,-2.0488,-2.0623,-2.0624,-2.0624,0,0,0,0,0,0,-2.005,-2.0066,-2.0204,-2.0147,-2.0165,-2.0226,-2.0259,-2.0269,-2.0293,-2.0356,-2.0367,-2.0321,-2.0417,-2.0431,-2.0484,-2.0495,-2.0488,-2.0492,-2.0622,-2.0623,-2.0624,-2.0594,0,0,0,0,0,0,-2.0045,-2.0064,-2.008,-2.0147,-2.0168,-2.0247,-2.026,-2.0272,-2.0302,-2.0305,-2.0372,-2.0382,-2.0418,-2.0476,-2.0489,-2.0502,-2.0496,-2.0622,-2.0623,-2.0624,-2.0594,-2.0594,-2.0594,0,0,0,0,0,-2.0038,-2.0067,-2.008,-2.0096,-2.0189,-2.0248,-2.026,-2.0301,-2.0303,-2.0319,-2.036,-2.038,-2.0492,-2.0481,-2.0496,-2.0511,-2.0621,-2.0622,-2.0624,-2.0595,-2.0594,-2.0594,0,0,0,0,0,0,-2.0,-2.0076,-2.0092,-2.0144,-2.0189,-2.0256,-2.0278,-2.0299,-2.0345,-2.0346,-2.0394,-2.0409,-2.0457,-2.0489,-2.0475,-2.0554,-2.0558,-2.0562,-2.0531,-2.0531,-2.053,-2.0522,-2.0501,0,0,0,0,0,-1.9997,-2.0038,-2.0103,-2.0142,-2.0164,-2.0217,-2.0244,-2.0271,-2.032,-2.034,-2.0384,-2.0431,-2.0476,-2.0505,-2.0551,-2.0599,-2.0614,-2.0617,-2.0617,-2.0616,-2.0619,-2.0647,-2.0649,-2.0629,-2.0629,-2.0629,0,0,-1.9993,-2.004,-2.0063,-2.0136,-2.0174,-2.0216,-2.0233,-2.0276,-2.0307,-2.0346,-2.0398,-2.0432,-2.0488,-2.0538,-2.0563,-2.0567,-2.0628,-2.0618,-2.0617,-2.0621,-2.0649,-2.0651,-2.0652,-2.063,-2.063,-2.0629,0,0,-2.0006,-2.0045,-2.0082,-2.012,-2.0177,-2.0212,-2.0221,-2.0285,-2.0309,-2.0362,-2.0392,-2.0429,-2.0507,-2.0545,-2.0575,-2.0601,-2.0622,-2.0615,-2.0612,-2.0639,-2.064,-2.0642,-2.0651,-2.0654,-2.0618,-2.0618,-2.0617,0,-1.9993,-2.0056,-2.0098,-2.014,-2.0171,-2.0208,-2.0245,-2.028,-2.035,-2.037,-2.0374,-2.0471,-2.0511,-2.0571,-2.0577,-2.06,-2.0612,-2.0607,-2.0637,-2.0639,-2.0641,-2.0651,-2.0654,-2.0616,-2.0616,-2.0617,-2.0617,0,-2.0037,-2.0081,-2.0104,-2.017,-2.0203,-2.0243,-2.0291,-2.032,-2.0344,-2.0378,-2.0431,-2.048,-2.0536,-2.0552,-2.0576,-2.0616,-2.0616,-2.0627,-2.0633,-2.0641,-2.0651,-2.0655,-2.0614,-2.0615,-2.0615,-2.0616,0,0,-2.003,-2.0118,-2.0126,-2.0156,-2.0222,-2.0256,-2.0297,-2.0351,-2.0375,-2.0422,-2.0457,-2.0522,-2.0533,-2.0566,-2.0595,-2.0618,-2.0635,-2.0627,-2.0629,-2.0626,-2.0681,-2.0672,-2.0676,-2.0649,-2.065,-2.0651,-2.0677,0,-2.0052,-2.0126,-2.0165,-2.0223,-2.0264,-2.0299,-2.0334,-2.0378,-2.0412,-2.0451,-2.0488,-2.0532,-2.0543,-2.0564,-2.0588,-2.0628,-2.0647,-2.0627,-2.0683,-2.0684,-2.0668,-2.0681,-2.0672,-2.0694,-2.0681,-2.0681,-2.0682,0,-2.0088,-2.0133,-2.0195,-2.0255,-2.0274,-2.0305,-2.0358,-2.0395,-2.0446,-2.0468,-2.0505,-2.0533,-2.0577,-2.0579,-2.0641,-2.0626,-2.0651,-2.0674,-2.0676,-2.0683,-2.0684,-2.0688,-2.0702,-2.0705,-2.0688,-2.0688,-2.0687,0,-2.0076,-2.0153,-2.0199,-2.0224,-2.0296,-2.0317,-2.0348,-2.0398,-2.0428,-2.0474,-2.0494,-2.0545,-2.0573,-2.0611,-2.0652,-2.0649,-2.0709,-2.0715,-2.0729,-2.0728,-2.0741,-2.0739,-2.0758,-2.0756,-2.0756,-2.0756,-2.0756,0,-2.0096,-2.0133,-2.0195,-2.0224,-2.0266,-2.031,-2.035,-2.0384,-2.0428,-2.0464,-2.0497,-2.053,-2.0582,-2.0622,-2.0654,-2.07,-2.0712,-2.0731,-2.074,-2.0729,-2.0726,-2.0746,-2.0746,-2.0757,-2.0757,-2.0757,-2.0757,0,-2.0091,-2.0134,-2.0187,-2.0251,-2.0267,-2.0295,-2.035,-2.0379,-2.0413,-2.0458,-2.0472,-2.0526,-2.0574,-2.0618,-2.0682,-2.0704,-2.075,-2.0761,-2.0733,-2.0738,-2.075,-2.0748,-2.0782,-2.0789,-2.0782,-2.0782,-2.0782,0,-2.0101,-2.013,-2.0196,-2.0222,-2.0252,-2.0294,-2.0325,-2.0369,-2.0399,-2.0459,-2.0481,-2.0531,-2.0574,-2.065,-2.0695,-2.0744,-2.0756,-2.0764,-2.0763,-2.0751,-2.0756,-2.0754,-2.0757,-2.0764,-2.0764,-2.0763,-2.0763,0,-2.0114,-2.0134,-2.0177,-2.0227,-2.0262,-2.0304,-2.0346,-2.0366,-2.0418,-2.0451,-2.05,-2.0533,-2.0599,-2.0648,-2.0702,-2.0735,-2.0758,-2.0763,-2.0769,-2.0758,-2.0741,-2.0751,-2.0732,-2.0762,-2.0762,-2.0763,-2.0763,-2.0763,-2.0118,-2.0144,-2.0195,-2.0241,-2.0278,-2.0316,-2.0347,-2.0385,-2.0427,-2.0483,-2.0507,-2.0557,-2.0606,-2.0681,-2.0713,-2.0753,-2.0758,-2.0766,-2.0769,-2.077,-2.0768,-2.0734,-2.0763,-2.0763,-2.0763,-2.0763,-2.0763,0,-2.0133,-2.0167,-2.0209,-2.0267,-2.0303,-2.0321,-2.0369,-2.0398,-2.0442,-2.0486,-2.0527,-2.0584,-2.0632,-2.068,-2.0731,-2.0754,-2.0766,-2.0766,-2.0765,-2.0772,-2.0761,-2.075,-2.0755,-2.0755,-2.0755,-2.0755,-2.0755,-2.0755,-2.0145,-2.0192,-2.0217,-2.0282,-2.0316,-2.0365,-2.0391,-2.0427,-2.0462,-2.0524,-2.0564,-2.0595,-2.0641,-2.0695,-2.074,-2.0753,-2.077,-2.0767,-2.0783,-2.0772,-2.0772,-2.0773,-2.0763,-2.077,-2.077,-2.0791,-2.0791,-2.0791]},{"header":{"parameterUnit":"m.s-1","parameterCategory":1,"la1":30.2991,"la2":30.254,"lo1":-89.0895,"lo2":-89.0444,"dx":0.0017,"dy":0.0017,"nx":28,"ny":28,"refTime":"2023-01-14T03:00:00:Z","depth":0,"parameterNumber":3,"parameterNumberName":"V-component_of_WINDS"},"data":[0,0,0,0,0,0,0,0,0,0,0,0,0,0,0,0,0,0,0,0,0,0,0,0,0,0,0,0,0,0,0,0,0,0,0,0,0,0,0,0,0,0,0,0,0,0,0,0,0,0,0,0,0,0,0,0,0,0,4.0363,4.0364,0,4.0467,4.0469,4.047,4.0424,4.0421,4.0418,4.0416,4.0521,4.0526,4.0532,0,0,0,0,0,0,0,0,0,0,0,0,0,4.0122,4.0127,4.0362,4.0364,4.0365,4.0467,4.0469,4.047,4.0424,4.0421,4.0418,4.0415,4.052,4.0526,4.0532,0,0,0,0,0,0,0,0,0,0,0,0,0,4.0226,4.0128,4.0362,4.0355,4.0355,4.0467,4.0469,4.047,4.0425,4.0421,4.0417,4.0413,4.0518,4.0525,4.0533,4.0658,0,0,4.0557,4.056,0,0,0,0,0,0,0,0,4.0221,4.0235,4.0354,4.0355,4.0356,4.0428,4.0422,4.0533,4.0426,4.0398,4.0416,4.0411,4.0493,4.0503,4.0531,4.0663,4.0667,4.0557,4.0562,4.0565,4.0568,0,0,0,0,0,0,0,4.0213,4.0231,4.0404,4.0356,4.0357,4.0346,4.0356,4.0443,4.0466,4.04,4.0397,4.041,4.0493,4.0524,4.0533,4.0669,4.0557,4.0564,4.0569,4.0572,4.091,4.0914,0,0,0,0,0,0,4.0206,4.0225,4.04,4.0407,4.0277,4.0353,4.0365,4.0409,4.0465,4.047,4.0413,4.0408,4.0512,4.0524,4.0537,4.0687,4.0565,4.0573,4.0577,4.0906,4.0911,4.0916,0,0,0,0,0,0,4.0201,4.0223,4.0396,4.0315,4.0336,4.0361,4.0411,4.0413,4.0443,4.0475,4.0479,4.044,4.051,4.0526,4.0629,4.069,4.0576,4.0583,4.0901,4.0907,4.0913,4.0989,0,0,0,0,0,0,4.0195,4.0221,4.0269,4.0317,4.0341,4.0487,4.0415,4.0418,4.0457,4.0451,4.0501,4.0506,4.0508,4.0617,4.0636,4.0699,4.0589,4.0895,4.0904,4.0911,4.0981,4.0997,4.1011,0,0,0,0,0,4.0186,4.0285,4.0271,4.0293,4.0401,4.049,4.0504,4.0505,4.0462,4.0511,4.0531,4.0504,4.0681,4.0628,4.0649,4.0715,4.0891,4.0901,4.0911,4.0974,4.0994,4.1011,0,0,0,0,0,0,4.0243,4.0291,4.0276,4.0394,4.0439,4.0482,4.0543,4.0526,4.0583,4.0574,4.0572,4.0584,4.069,4.0713,4.0654,4.084,4.078,4.0794,4.0821,4.084,4.0854,4.0846,4.0596,0,0,0,0,0,4.0269,4.0338,4.0376,4.0476,4.05,4.0518,4.0557,4.0554,4.0599,4.0618,4.0646,4.0691,4.0756,4.0799,4.0862,4.0985,4.0995,4.1041,4.1056,4.1068,4.108,4.1147,4.1168,4.0948,4.0947,4.0947,0,0,4.0323,4.0359,4.0402,4.0488,4.0523,4.0594,4.0534,4.0611,4.0664,4.0629,4.0728,4.0751,4.0801,4.0915,4.0966,4.0937,4.1143,4.108,4.109,4.1095,4.1159,4.118,4.1199,4.0954,4.0953,4.0952,0,0,4.0459,4.0493,4.058,4.0616,4.0669,4.0681,4.0702,4.0749,4.0763,4.0863,4.0839,4.0902,4.1015,4.1052,4.1085,4.1238,4.1215,4.1258,4.1336,4.1402,4.1419,4.1434,4.1489,4.1508,4.127,4.1271,4.1271,0,4.0519,4.0626,4.0626,4.0706,4.0745,4.0719,4.0808,4.0842,4.0913,4.094,4.0907,4.1049,4.1081,4.1204,4.1241,4.127,4.1294,4.1251,4.1417,4.1432,4.1446,4.1498,4.1519,4.1275,4.1275,4.1274,4.1274,0,4.0698,4.0772,4.0836,4.0906,4.0953,4.1036,4.105,4.1097,4.1091,4.1106,4.1209,4.1247,4.1316,4.1346,4.134,4.1468,4.1448,4.1416,4.1355,4.1472,4.1521,4.1541,4.1282,4.1281,4.1279,4.1278,0,0,4.0869,4.094,4.0964,4.0995,4.1053,4.1111,4.1194,4.1263,4.1303,4.1354,4.1423,4.1521,4.1492,4.153,4.1529,4.1587,4.1706,4.1548,4.1549,4.1575,4.185,4.1873,4.1896,4.1692,4.1696,4.1699,4.1845,0,4.1008,4.1154,4.1158,4.1292,4.136,4.1338,4.141,4.1454,4.1471,4.1532,4.1551,4.1621,4.1577,4.1601,4.1657,4.1679,4.176,4.1669,4.1756,4.1759,4.1743,4.1921,4.1945,4.2081,4.1864,4.1867,4.187,0,4.119,4.1247,4.1387,4.1437,4.1466,4.1531,4.1595,4.1654,4.1703,4.1712,4.1756,4.1747,4.1832,4.177,4.1888,4.1825,4.1862,4.1878,4.1884,4.1891,4.182,4.1932,4.2125,4.2145,4.19,4.1897,4.1895,0,4.13,4.1412,4.1511,4.1539,4.1599,4.1646,4.1673,4.1718,4.176,4.1817,4.1844,4.191,4.1946,4.1997,4.2006,4.196,4.2124,4.2062,4.2133,4.2133,4.2167,4.2164,4.2367,4.2193,4.2192,4.2192,4.2191,0,4.1454,4.1541,4.1562,4.1622,4.1719,4.1724,4.1819,4.1843,4.1884,4.1949,4.1934,4.1995,4.2004,4.2067,4.2075,4.2171,4.2188,4.2197,4.2198,4.2198,4.2197,4.222,4.2211,4.2197,4.2196,4.2195,4.2194,0,4.1593,4.161,4.1716,4.1765,4.178,4.1849,4.1891,4.1949,4.1966,4.2049,4.2068,4.2094,4.2169,4.2183,4.2271,4.2276,4.2391,4.2382,4.2374,4.2373,4.2443,4.2436,4.2667,4.2698,4.2504,4.2505,4.2507,0,4.1689,4.1756,4.1813,4.1855,4.1885,4.1954,4.1997,4.2005,4.2051,4.2113,4.2164,4.2237,4.2295,4.2416,4.2442,4.251,4.2502,4.2579,4.2512,4.2511,4.2503,4.2499,4.2505,4.2591,4.2593,4.2595,4.2596,0,4.1859,4.1865,4.1928,4.1995,4.2047,4.21,4.215,4.2186,4.22,4.2253,4.2329,4.2375,4.2465,4.2538,4.2606,4.2633,4.2618,4.2618,4.2638,4.2637,4.263,4.2635,4.2408,4.2612,4.261,4.2609,4.2608,4.2608,4.1979,4.2038,4.2087,4.2158,4.2197,4.2245,4.2302,4.2327,4.2391,4.2465,4.2466,4.255,4.2599,4.2689,4.2721,4.2787,4.2763,4.2791,4.2799,4.2805,4.2812,4.2621,4.2799,4.2799,4.2799,4.2798,4.2798,0,4.2148,4.2179,4.2245,4.2316,4.2372,4.2354,4.2409,4.2457,4.2531,4.2578,4.2637,4.2726,4.2797,4.283,4.2901,4.2947,4.2941,4.2965,4.2961,4.2968,4.2829,4.2805,4.2968,4.2968,4.2968,4.2968,4.2968,4.2968,4.2242,4.234,4.2352,4.2469,4.25,4.2582,4.2615,4.2659,4.2697,4.2797,4.2856,4.2878,4.292,4.2994,4.3059,4.3067,4.3093,4.312,4.3125,4.2995,4.2977,4.2961,4.2938,4.3126,4.3126,4.3258,4.3259,4.326]}]]